GSAT-9

Last updated on Tue Sep 22 2026 00:03:14 GMT+0000 (Coordinated Universal Time)

1 42695U 17024A 26264.57963775 -.00000291 00000+0 00000+0 0 9990 2 42695 0.0417 96.7233 0002716 78.7054 131.0207 1.00275223 34268
UTC large
Height (km)
Speed (km/s)
/
Latitude / Longitude
Inclination (degrees)
Orbital Period (minutes)
Azimuth
Elevation
Range (km)
Doppler Factor

Next 0 passes for location: London (51.5072 / 0.1276)

No passes found over London.
GSAT-9